Birmingham International Airport (BHM)

 

Airport Diagram
Current Weather/Forecast (VFR Conditions)
METAR KBHM 220353Z 15003KT 10SM SCT110 16/06 A3015 RMK AO2 SLP207 T01560061
TAF KBHM 212320Z 2200/2224 15004KT P6SM SCT120 BKN250 FM221100 18004KT P6SM OVC025 FM221500 18006KT P6SM VCSH OVC025

All Charts
General
Chart Name Download
AIRPORT DIAGRAM
TAKEOFF MINIMUMS
ALTERNATE MINIMUMS
LAHSO

Departures
Chart Name Download
BIRMINGHAM SEVEN
BIRMINGHAM SEVEN, CONT.1

Approaches
Chart Name Download
ILS OR LOC RWY 06
ILS OR LOC RWY 24
ILS RWY 06 (CAT II)
ILS RWY 24 (SA CAT II)
RNAV (RNP) Z RWY 06
RNAV (RNP) Z RWY 24
RNAV (GPS) RWY 18
RNAV (GPS) RWY 36
RNAV (GPS) Y RWY 06
RNAV (GPS) Y RWY 24
LOC RWY 18


Inbound Traffic (Arrivals)

No inbound traffic.


Outbound Traffic (Departures)

No outbound traffic.